Time,TemperatureF,DewpointF,PressureIn,WindDirection,WindDirectionDegrees,WindSpeedMPH,WindSpeedGustMPH,Humidity,HourlyPrecipIn,Conditions,Clouds,dailyrainin,SoftwareType,DateUTC
2013-06-24 00:02:00,57.5,56.0,29.84,WSW,255,2.0,4.0,96,0.00,,,0.00,weatherlink.com 1.10,2013-06-24 07:02:00,
2013-06-24 00:32:00,57.1,56.0,29.84,SW,221,3.0,4.0,96,0.00,,,0.00,weatherlink.com 1.10,2013-06-24 07:32:00,
2013-06-24 00:47:00,57.7,56.0,29.83,SW,235,3.0,3.0,95,0.00,,,0.00,weatherlink.com 1.10,2013-06-24 07:47:00,
2013-06-24 01:02:00,58.0,56.0,29.83,WSW,248,4.0,4.0,94,0.00,,,0.00,weatherlink.com 1.10,2013-06-24 08:02:00,
2013-06-24 01:17:00,57.2,56.0,29.83,WSW,243,7.0,8.0,95,0.00,,,0.00,weatherlink.com 1.10,2013-06-24 08:17:00,
2013-06-24 01:32:00,56.6,56.0,29.84,West,280,3.0,9.0,97,0.00,,,0.00,weatherlink.com 1.10,2013-06-24 08:32:00,
2013-06-24 01:47:00,56.8,56.0,29.84,WNW,285,2.0,5.0,96,0.00,,,0.00,weatherlink.com 1.10,2013-06-24 08:47:00,
2013-06-24 02:02:00,56.9,56.0,29.83,WNW,295,0.0,3.0,96,0.00,,,0.00,weatherlink.com 1.10,2013-06-24 09:02:00,
2013-06-24 02:17:00,57.1,56.0,29.82,SW,226,2.0,3.0,95,0.00,,,0.00,weatherlink.com 1.10,2013-06-24 09:17:00,
2013-06-24 02:32:00,56.7,55.0,29.82,SW,218,0.0,4.0,95,0.00,,,0.00,weatherlink.com 1.10,2013-06-24 09:32:00,
2013-06-24 03:02:00,56.6,55.0,29.82,NW,304,0.0,2.0,95,0.00,,,0.00,weatherlink.com 1.10,2013-06-24 10:02:00,
2013-06-24 03:32:00,57.4,57.0,29.82,SW,232,3.0,7.0,97,0.00,,,0.00,weatherlink.com 1.10,2013-06-24 10:32:00,
2013-06-24 03:47:00,57.8,56.0,29.82,West,262,2.0,6.0,94,0.00,,,0.00,weatherlink.com 1.10,2013-06-24 10:47:00,
2013-06-24 04:02:00,58.0,56.0,29.81,SSW,211,4.0,5.0,93,0.00,,,0.00,weatherlink.com 1.10,2013-06-24 11:02:00,
2013-06-24 04:17:00,57.2,56.0,29.82,SSW,212,4.0,5.0,94,0.00,,,0.00,weatherlink.com 1.10,2013-06-24 11:17:00,
2013-06-24 04:32:00,57.3,56.0,29.82,WSW,238,3.0,8.0,95,0.00,,,0.00,weatherlink.com 1.10,2013-06-24 11:32:00,
2013-06-24 04:47:00,57.6,56.0,29.83,West,260,3.0,5.0,95,0.00,,,0.00,weatherlink.com 1.10,2013-06-24 11:47:00,
2013-06-24 05:02:00,57.4,56.0,29.83,WSW,240,4.0,5.0,95,0.00,,,0.00,weatherlink.com 1.10,2013-06-24 12:02:00,
2013-06-24 05:17:00,57.3,56.0,29.83,West,264,1.0,4.0,95,0.00,,,0.00,weatherlink.com 1.10,2013-06-24 12:17:00,
2013-06-24 05:32:00,57.3,56.0,29.83,West,266,2.0,4.0,95,0.00,,,0.00,weatherlink.com 1.10,2013-06-24 12:32:00,
2013-06-24 06:02:00,56.8,56.0,29.84,WSW,253,4.0,4.0,96,0.00,,,0.00,weatherlink.com 1.10,2013-06-24 13:02:00,
2013-06-24 06:32:00,57.0,56.0,29.84,West,281,3.0,4.0,96,0.00,,,0.00,weatherlink.com 1.10,2013-06-24 13:32:00,
2013-06-24 06:47:00,57.0,56.0,29.85,West,281,3.0,5.0,96,0.00,,,0.00,weatherlink.com 1.10,2013-06-24 13:47:00,
2013-06-24 07:02:00,56.8,56.0,29.85,WNW,294,3.0,6.0,96,0.00,,,0.00,weatherlink.com 1.10,2013-06-24 14:02:00,
2013-06-24 07:17:00,57.0,56.0,29.85,West,259,1.0,5.0,96,0.00,,,0.00,weatherlink.com 1.10,2013-06-24 14:17:00,
2013-06-24 08:02:00,57.1,56.0,29.85,SW,217,0.0,2.0,96,0.00,,,0.00,weatherlink.com 1.10,2013-06-24 15:02:00,
2013-06-24 08:18:00,57.1,56.0,29.86,SSE,156,0.0,2.0,95,0.00,,,0.00,weatherlink.com 1.10,2013-06-24 15:18:00,
2013-06-24 08:33:00,57.4,56.0,29.87,SSE,155,0.0,0.0,95,0.00,,,0.00,weatherlink.com 1.10,2013-06-24 15:33:00,
2013-06-24 08:48:00,57.5,56.0,29.86,SSE,149,0.0,2.0,95,0.00,,,0.00,weatherlink.com 1.10,2013-06-24 15:48:00,
2013-06-24 09:03:00,58.1,57.0,29.86,SSE,155,0.0,0.0,95,0.00,,,0.00,weatherlink.com 1.10,2013-06-24 16:03:00,
2013-06-24 09:18:00,58.3,57.0,29.88,SE,146,2.0,4.0,94,0.00,,,0.00,weatherlink.com 1.10,2013-06-24 16:18:00,
2013-06-24 09:33:00,58.5,57.0,29.88,NW,307,1.0,3.0,94,0.00,,,0.00,weatherlink.com 1.10,2013-06-24 16:33:00,
2013-06-24 10:03:00,59.2,57.0,29.88,SW,215,4.0,7.0,92,0.00,,,0.00,weatherlink.com 1.10,2013-06-24 17:03:00,
2013-06-24 10:18:00,59.2,57.0,29.89,SSW,196,3.0,5.0,92,0.00,,,0.00,weatherlink.com 1.10,2013-06-24 17:18:00,
2013-06-24 10:33:00,59.3,57.0,29.89,SSW,205,3.0,4.0,91,0.00,,,0.00,weatherlink.com 1.10,2013-06-24 17:33:00,
2013-06-24 10:48:00,59.3,56.0,29.90,SW,217,3.0,6.0,90,0.00,,,0.00,weatherlink.com 1.10,2013-06-24 17:48:00,
2013-06-24 11:03:00,59.6,57.0,29.90,WSW,242,4.0,5.0,92,0.00,,,0.00,weatherlink.com 1.10,2013-06-24 18:03:00,
2013-06-24 11:18:00,59.7,57.0,29.90,SSW,195,3.0,5.0,90,0.00,,,0.00,weatherlink.com 1.10,2013-06-24 18:18:00,
2013-06-24 11:33:00,59.3,56.0,29.90,SSE,154,4.0,8.0,90,0.00,,,0.00,weatherlink.com 1.10,2013-06-24 18:33:00,
2013-06-24 11:48:00,59.0,57.0,29.90,SSE,160,4.0,9.0,92,0.00,,,0.00,weatherlink.com 1.10,2013-06-24 18:48:00,
2013-06-24 12:03:00,58.8,57.0,29.90,SE,142,1.0,4.0,93,0.02,,,0.02,weatherlink.com 1.10,2013-06-24 19:03:00,
2013-06-24 12:33:00,58.9,57.0,29.90,SSE,148,2.0,5.0,92,0.05,,,0.05,weatherlink.com 1.10,2013-06-24 19:33:00,
2013-06-24 12:48:00,59.0,57.0,29.90,SE,128,2.0,7.0,93,0.06,,,0.06,weatherlink.com 1.10,2013-06-24 19:48:00,
2013-06-24 13:03:00,58.9,57.0,29.90,SE,130,3.0,8.0,92,0.04,,,0.06,weatherlink.com 1.10,2013-06-24 20:03:00,
2013-06-24 13:48:00,59.4,57.0,29.90,SSE,156,2.0,8.0,93,0.03,,,0.09,weatherlink.com 1.10,2013-06-24 20:48:00,
2013-06-24 14:18:00,59.1,57.0,29.90,SSE,152,2.0,5.0,94,0.03,,,0.10,weatherlink.com 1.10,2013-06-24 21:18:00,
2013-06-24 14:33:00,59.0,57.0,29.89,South,191,1.0,5.0,94,0.03,,,0.11,weatherlink.com 1.10,2013-06-24 21:33:00,
2013-06-24 14:48:00,59.2,58.0,29.89,SE,139,3.0,6.0,95,0.02,,,0.11,weatherlink.com 1.10,2013-06-24 21:48:00,
2013-06-24 15:03:00,59.8,58.0,29.89,SW,224,0.0,2.0,95,0.02,,,0.11,weatherlink.com 1.10,2013-06-24 22:03:00,
2013-06-24 15:48:00,60.6,59.0,29.90,SSW,198,3.0,4.0,94,0.00,,,0.11,weatherlink.com 1.10,2013-06-24 22:48:00,
2013-06-24 16:03:00,59.3,57.0,29.90,SSE,156,11.0,14.0,93,0.00,,,0.11,weatherlink.com 1.10,2013-06-24 23:03:00,
2013-06-24 16:18:00,59.1,57.0,29.91,SE,139,5.0,10.0,93,0.00,,,0.11,weatherlink.com 1.10,2013-06-24 23:18:00,
2013-06-24 16:33:00,59.1,57.0,29.90,SE,134,3.0,9.0,92,0.00,,,0.11,weatherlink.com 1.10,2013-06-24 23:33:00,
2013-06-24 17:03:00,59.9,58.0,29.90,SE,139,6.0,12.0,92,0.00,,,0.11,weatherlink.com 1.10,2013-06-25 00:03:00,
2013-06-24 17:18:00,59.7,57.0,29.89,South,190,8.0,13.0,91,0.00,,,0.11,weatherlink.com 1.10,2013-06-25 00:18:00,
2013-06-24 17:33:00,59.8,57.0,29.90,SSE,149,5.0,10.0,90,0.00,,,0.11,weatherlink.com 1.10,2013-06-25 00:33:00,
2013-06-24 17:48:00,59.6,57.0,29.89,SE,144,6.0,8.0,90,0.00,,,0.11,weatherlink.com 1.10,2013-06-25 00:48:00,
2013-06-24 18:03:00,59.5,57.0,29.89,SE,144,2.0,4.0,91,0.00,,,0.11,weatherlink.com 1.10,2013-06-25 01:03:00,
2013-06-24 18:18:00,59.7,57.0,29.89,SSE,159,4.0,8.0,91,0.00,,,0.11,weatherlink.com 1.10,2013-06-25 01:18:00,
2013-06-24 18:33:00,59.4,57.0,29.89,SSE,153,8.0,12.0,91,0.00,,,0.11,weatherlink.com 1.10,2013-06-25 01:33:00,
2013-06-24 18:48:00,59.1,57.0,29.89,South,172,5.0,8.0,92,0.00,,,0.11,weatherlink.com 1.10,2013-06-25 01:48:00,
2013-06-24 19:18:00,58.6,57.0,29.90,SSE,155,6.0,9.0,93,0.02,,,0.13,weatherlink.com 1.10,2013-06-25 02:18:00,
2013-06-24 19:33:00,58.2,57.0,29.90,SSE,152,6.0,8.0,94,0.02,,,0.13,weatherlink.com 1.10,2013-06-25 02:33:00,
2013-06-24 19:49:00,58.0,56.0,29.90,SE,145,5.0,8.0,94,0.02,,,0.13,weatherlink.com 1.10,2013-06-25 02:49:00,
2013-06-24 20:03:00,58.0,57.0,29.90,ESE,108,0.0,6.0,95,0.02,,,0.14,weatherlink.com 1.10,2013-06-25 03:03:00,
2013-06-24 20:18:00,57.6,56.0,29.89,ESE,103,1.0,2.0,95,0.01,,,0.14,weatherlink.com 1.10,2013-06-25 03:18:00,
2013-06-24 20:33:00,57.4,56.0,29.89,East,93,0.0,2.0,96,0.02,,,0.15,weatherlink.com 1.10,2013-06-25 03:33:00,
2013-06-24 20:48:00,57.5,56.0,29.89,East,95,0.0,3.0,96,0.02,,,0.15,weatherlink.com 1.10,2013-06-25 03:48:00,
2013-06-24 21:03:00,57.6,57.0,29.89,ESE,106,0.0,3.0,96,0.01,,,0.15,weatherlink.com 1.10,2013-06-25 04:03:00,
2013-06-24 21:18:00,57.7,57.0,29.89,ESE,103,2.0,3.0,97,0.02,,,0.16,weatherlink.com 1.10,2013-06-25 04:18:00,
2013-06-24 21:33:00,57.9,57.0,29.89,ENE,76,1.0,3.0,96,0.01,,,0.16,weatherlink.com 1.10,2013-06-25 04:33:00,
2013-06-24 21:48:00,58.1,57.0,29.90,East,98,1.0,3.0,96,0.01,,,0.16,weatherlink.com 1.10,2013-06-25 04:48:00,
2013-06-24 22:03:00,58.4,57.0,29.90,East,98,0.0,2.0,96,0.01,,,0.16,weatherlink.com 1.10,2013-06-25 05:03:00,
2013-06-24 22:18:00,58.4,57.0,29.90,East,79,0.0,0.0,96,0.00,,,0.16,weatherlink.com 1.10,2013-06-25 05:18:00,
2013-06-24 22:33:00,58.4,57.0,29.90,East,100,0.0,2.0,96,0.00,,,0.16,weatherlink.com 1.10,2013-06-25 05:33:00,
2013-06-24 22:48:00,58.4,57.0,29.90,East,91,1.0,3.0,96,0.00,,,0.16,weatherlink.com 1.10,2013-06-25 05:48:00,
2013-06-24 23:03:00,58.5,57.0,29.90,East,81,0.0,3.0,96,0.00,,,0.16,weatherlink.com 1.10,2013-06-25 06:03:00,
2013-06-24 23:18:00,58.4,57.0,29.90,ESE,103,1.0,3.0,96,0.00,,,0.16,weatherlink.com 1.10,2013-06-25 06:18:00,
2013-06-24 23:34:00,58.2,57.0,29.90,East,79,1.0,3.0,96,0.00,,,0.16,weatherlink.com 1.10,2013-06-25 06:34:00,
2013-06-24 23:48:00,58.1,57.0,29.90,East,92,2.0,3.0,96,0.00,,,0.16,weatherlink.com 1.10,2013-06-25 06:48:00,